SCP
0 0 0 0 0 0 0 0 0 0 0 0 0 0 0 0 0 0 0 0 0 0 0 0 0 0 0 0 0 0 0 0 0 0 0 0 0 0 0 0 0 0 0 0
0 0 0 0 0 0 0 0 0 0 0 0 0 0 0 0 0 0 0 0 0 0 0 0 0 0 0 0 0 0 0 0 0 0 0 0 0 0 0 0 0 0 0 0
0 0 0 0 0 0 0 0 0 0 0 0 0 0 0 0 0 0 0 0 0 0 0 0 0 0 0 0 0 0 0 0 0 0 0 0 0 0 0 0 0 0 0 0
0 0 0 0 0 0 0 0 0 0 0 0 0 0 0 0 0 0 0 0 0 0 0 0 0 0 0 0 0 0 0 0 0 0 0 0 0 0 0 0 0 0 0 0
0 0 0 0 0 0 0 0 0 0 0 0 0 0 0 0 0 0 0 0 0 0 0 0 0 0 0 0 0 0 0 0 0 0 0 0 0 0 0 0 0 0 0 0
0 0 0 0 0 0 0 0 0 0 0 0 0 0 0 0 0 0 0 0 0 0 0 0 0 0 0 0 0 0 0 0 0 0 0 0 0 0 0 0 0 0 0 0
0 0 0 0 0 0 0 0 0 0 0 0 0 0 0 0 0 0 0 0 0 0 0 0 0 0 0 0 0 0 0 0 0 0 0 0 0 0 0 0 0 0 0 0
0 0 0 0 0 0 0 0 0 0 0 0 0 0 0 0 0 0 0 0 0 0 0 0 0 0 0 0 0 0 0 0 0 0 0 0 0 0 0 0 0 0 0 0
0 0 0 0 0 0 0 0 0 0 0 0 0 0 0 0 0 0 0 0 0 0 0 0 0 0 0 0 0 0 0 0 0 0 0 0 0 0 0 0 0 0 0 0
0 0 0 0 0 0 0 0 0 0 0 0 0 0 0 0 0 0 0 0 0 0 0 0 0 0 0 0 0 0 0 0 0 0 0 0 0 0 0 0 0 0 0 0
0 0 0 0 0 0 0 0 0 0 0 0 0 0 0 0 0 0 0 0 0 0 0 0 0 0 0 0 0 0 0 0 0 0 0 0 0 0 0 0 0 0 0 0
0 0 0 0 0 0 0 0 0 0 0 0 0 0 0 0 0 0 0 0 0 0 0 0 0 0 0 0 0 0 0 0 0 0 0 0 0 0 0 0 0 0 0 0
0 0 0 0 0 0 0 0 0 0 0 0 0 0 0 0 0 0 0 0 0 0 0 0 0 0 0 0 0 0 0 0 0 0 0 0 0 0 0 0 0 0 0 0
0 0 0 0 0 0 0 0 0 0 0 0 0 0 0 0 0 0 0 0 0 0 0 0 0 0 0 0 0 0 0 0 0 0 0 0 0 0 0 0 0 0 0 0
0 0 0 0 0 0 0 0 0 0 0 0 0 0 0 0 0 0 0 0 0 0 0 0 0 0 0 0 0 0 0 0 0 0 0 0 0 0 0 0 0 0 0 0
0 0 0 0 0 0 0 0 0 0 0 0 0 0 0 0 0 0 0 0 0 0 0 0 0 0 0 0 0 0 0 0 0 0 0 0 0 0 0 0 0 0 0 0
0 0 0 0 0 0 0 0 0 0 0 0 0 0 0 0 0 0 0 0 0 0 0 0 0 0 0 0 0 0 -0 0 0 0 0 0 0 0 0 0 0 0 0 0
0 0 0 0 0 0 0 0 0 0 0 0 0 0 0 0 0 0 0 0 0 0 0 0 0 0 0 0 0 0 -0 -0 -0 -0 -0 0 0 0 0 0 0 0 0 0
0 0 0 0 0 0 0 0 0 0 0 0 0 0 0 0 0 0 0 0 0 0 0 0 0 0 0 0 0 0 0 -0 -0 -0 -0 -0 0 0 0 0 0 0 0 0
0 0 0 0 0 0 0 0 0 0 0 0 0 0 0 0 0 0 0 0 0 0 0 0 0 0 0 0 0 0 0 0 -0 -0 -0 -0 0 0 0 0 0 0 0 0
0 0 0 0 0 0 0 0 0 0 0 0 0 0 0 0 0 0 0 0 0 0 0 0 0 0 0 0 0 0 0 0 0 0 0 0 0 0 0 0 0 0 0 0
0 0 0 0 0 0 0 0 0 0 0 0 0 0 0 0 0 0 0 0 0 0 0 0 0 0 0 0 0 0 0 0 0 0 0 0 0 0 0 0 0 0 0 0
0 0 0 0 0 0 0 0 0 0 0 0 0 0 0 0 0 0 0 0 0 0 0 0 0 0 0 0 0 0 0 0 0 0 0 0 0 0 0 0 0 0 0 0
0 0 0 0 0 0 0 0 0 0 0 0 0 0 0 0 0 0 0 0 0 0 0 0 0 0 0 0 0 0 0 0 0 0 0 0 0 0 0 0 0 0 0 0
0 0 0 0 0 0 0 0 0 0 0 0 0 0 0 0 0 0 0 0 0 0 0 0 0 0 0 0 0 0 0 0 0 0 0 0 0 0 0 0 0 0 0 0
0 0 0 0 0 0 0 0 0 0 0 0 0 0 0 0 0 0 0 0 0 0 0 0 0 0 0 0 0 0 0 0 0 0 0 0 0 0 0 0 0 0 0 0
Wind_Speed
7 9 8 6 6 5 4 5 5 2 2 4 4 3 2 5 5 5 6 5 5 4 4 4 4 4 4 3 3 3 3 2 2 1 2 1 1 2 2 2 2 3 3 3
8 9 5 4 5 6 6 7 5 2 3 4 3 3 2 4 5 5 5 5 5 5 4 4 4 4 4 4 4 4 3 2 2 1 1 2 2 2 2 2 1 3 3 4
9 3 4 6 7 7 7 7 5 4 3 6 6 6 6 5 5 5 5 5 5 6 5 5 5 4 4 4 4 3 2 2 1 1 2 1 2 2 1 2 1 2 4 4
7 5 6 8 8 8 7 4 6 6 8 5 6 5 3 5 6 6 6 6 5 5 5 5 4 4 3 2 2 3 2 2 1 2 2 3 3 2 2 3 2 3 3 4
6 6 8 8 6 7 6 3 6 8 9 7 6 7 2 4 4 4 5 5 5 4 5 4 4 3 2 2 2 2 2 1 1 2 2 3 3 2 2 2 2 3 3 3
7 4 5 5 4 5 4 5 7 8 8 8 4 6 2 2 1 1 3 4 4 4 4 4 3 3 2 2 2 3 2 2 1 1 2 2 3 3 3 3 3 3 2 2
8 8 5 4 6 7 8 8 6 7 6 3 2 4 1 3 1 0 1 3 4 4 4 3 3 3 2 2 2 2 2 2 2 1 1 2 2 3 3 3 3 3 2 2
6 6 7 6 8 5 7 9 7 7 6 2 4 3 2 4 2 1 1 2 3 3 4 3 3 3 3 2 2 2 2 1 2 2 1 2 3 3 2 2 3 3 3 2
5 4 5 4 5 7 6 7 6 9 8 7 3 2 3 3 2 2 2 2 2 3 3 3 3 3 3 2 2 1 2 1 1 2 1 2 2 3 3 3 3 2 2 2
6 6 4 4 6 4 6 4 5 7 6 7 4 4 1 3 1 2 1 2 2 3 3 3 3 3 3 2 2 2 1 1 1 1 1 1 2 2 2 2 2 2 3 3
5 6 4 5 6 5 5 5 6 6 6 7 6 1 5 2 1 1 1 1 2 3 4 4 3 4 4 3 3 2 2 1 1 1 0 1 1 1 1 1 2 2 3 3
3 5 6 6 3 4 6 6 7 7 6 6 7 1 6 3 2 1 1 2 3 3 4 4 4 4 4 3 2 2 2 1 1 1 0 1 1 1 1 1 2 2 3 3
2 5 7 8 8 7 6 6 7 6 5 6 7 1 6 3 2 2 2 2 3 3 4 4 4 4 3 3 2 2 1 1 1 1 1 1 1 1 2 2 2 2 3 3
4 5 8 8 5 3 5 6 8 9 7 6 6 3 2 2 1 2 2 2 3 4 4 3 4 3 3 2 2 2 1 1 1 1 1 1 1 1 1 2 2 2 3 2
4 6 7 7 6 7 7 7 8 9 8 8 6 4 1 1 1 2 3 3 3 4 4 3 3 3 3 2 2 2 2 1 1 1 1 1 1 1 2 2 3 3 2 2
3 5 6 7 7 7 8 8 8 8 7 7 6 3 1 2 2 2 3 3 3 3 3 3 3 3 3 2 2 2 2 2 1 1 1 1 1 1 2 2 2 2 3 3
4 5 6 7 6 8 9 8 8 6 5 6 6 1 2 2 2 2 2 3 3 3 3 3 3 3 3 2 2 2 2 1 1 1 1 1 1 1 2 2 3 3 3 2
6 6 6 7 7 10 1 1 4 4 3 2 1 2 2 2 2 2 2 2 3 3 3 3 3 3 3 3 3 2 2 2 1 1 1 0 0 1 2 2 3 3 2 3
7 7 7 7 9 7 5 4 5 5 4 1 1 1 1 1 4 4 2 1 2 3 3 3 3 3 3 3 3 3 3 2 1 1 0 0 1 1 1 2 2 2 2 2
6 8 8 8 9 8 1 2 2 5 6 3 2 2 1 2 4 2 2 1 2 2 3 3 3 4 4 4 4 3 3 2 1 1 1 1 1 1 2 2 2 2 2 2
6 7 9 10 10 4 3 1 4 7 1 4 2 2 2 1 3 2 1 1 2 3 3 4 4 4 4 5 4 4 3 2 2 2 2 1 1 0 1 1 1 2 2 3
6 6 7 7 9 3 5 2 1 4 4 2 1 1 1 1 1 0 0 1 1 2 4 4 4 4 4 5 5 4 4 3 2 2 2 2 1 1 0 1 1 2 3 3
4 4 4 4 2 4 2 2 3 2 1 1 1 1 2 1 1 1 1 1 2 2 3 4 4 4 4 5 5 5 4 3 3 3 2 2 1 1 0 1 1 1 2 2
3 3 5 4 3 2 2 2 2 1 1 2 2 2 2 3 2 2 1 2 2 3 3 4 5 5 5 5 5 4 4 4 3 2 2 2 2 1 1 1 1 1 2 3
4 5 5 6 4 4 3 3 3 3 2 2 2 2 3 3 2 2 2 3 3 3 3 4 4 5 5 5 4 4 4 4 4 3 3 3 2 2 1 1 1 2 2 3
5 5 6 5 4 5 5 5 5 4 3 3 3 3 3 3 3 3 3 3 3 3 3 4 4 5 5 5 5 5 5 5 5 4 4 3 2 2 2 2 2 2 1 1
Wind_Direction
197 223 222 222 240 272 266 261 255 250 166 232 231 227 164 164 180 179 168 162 163 163 156 156 167 182 187 187 189 190 206 190 219 231 261 261 266 281 285 295 314 288 282 278
207 219 227 235 233 247 248 251 250 201 162 245 242 242 186 176 190 189 179 174 179 177 170 176 190 196 205 202 200 200 200 200 227 230 266 271 287 282 288 304 301 290 285 279
230 199 192 226 223 236 249 258 273 270 215 220 237 227 196 179 185 188 193 195 192 192 189 198 205 207 207 203 209 211 205 208 233 251 258 270 261 263 280 301 301 313 297 286
234 219 217 229 232 242 254 248 258 251 244 232 239 269 179 185 190 199 204 208 209 206 199 199 204 210 208 198 200 200 191 194 229 246 272 277 279 291 303 301 327 314 301 297
220 213 224 235 240 248 272 279 254 254 258 262 235 266 176 178 220 213 211 214 217 209 197 192 198 198 193 187 180 182 176 193 226 265 275 270 282 298 307 313 326 302 304 302
250 224 250 260 256 246 240 231 234 238 246 252 254 269 261 163 258 235 197 199 208 204 186 187 191 186 178 169 179 183 183 197 213 258 287 289 301 304 308 304 306 297 306 309
220 213 207 226 229 208 224 241 242 230 230 250 138 256 331 52 53 274 199 185 193 191 176 178 180 174 169 174 182 186 187 206 218 242 281 291 291 280 280 297 299 298 308 326
235 216 195 208 241 243 227 254 273 286 288 291 187 245 66 81 88 97 117 150 174 174 164 169 170 166 170 171 178 188 196 215 228 233 252 280 280 286 297 302 304 305 317 334
252 236 165 195 233 255 236 245 284 279 277 275 234 178 153 136 145 143 139 141 166 171 161 157 156 156 158 163 162 179 195 191 218 229 234 252 276 296 303 293 288 316 329 320
275 269 220 190 210 220 278 270 250 260 278 278 254 237 186 143 154 152 163 163 160 165 152 146 148 148 147 145 137 138 145 147 162 185 281 307 299 291 290 291 322 325 330 332
262 264 234 213 233 241 212 222 251 269 281 284 288 2 64 76 121 181 148 118 143 153 144 143 143 139 137 129 125 127 131 143 140 112 12 330 314 304 302 308 310 320 318 314
253 268 261 240 222 264 254 252 243 255 258 262 284 0 88 82 79 89 87 108 123 133 139 138 138 140 138 131 134 139 160 168 154 129 1 1 356 342 321 327 335 325 316 318
240 246 248 220 197 200 228 234 237 249 260 257 267 156 110 99 95 89 94 117 131 134 136 140 142 142 135 132 137 137 156 154 138 110 88 45 3 4 343 339 346 334 327 320
258 256 267 279 306 281 241 235 231 239 250 259 262 266 150 133 122 100 108 128 137 141 140 141 143 144 137 132 129 137 129 127 107 92 69 58 25 19 358 349 345 334 325 315
263 251 253 268 283 277 269 257 238 239 256 271 276 271 217 162 172 143 129 130 141 143 136 140 152 150 145 135 132 124 112 116 116 96 75 62 53 31 18 8 354 345 334 334
254 258 255 253 250 254 260 255 247 243 251 252 255 251 115 132 149 141 137 144 154 153 152 155 159 163 160 155 148 130 124 120 128 106 83 80 57 40 25 12 357 356 355 358
227 233 249 255 246 253 247 241 239 231 240 249 251 233 158 170 164 166 167 172 177 171 166 168 169 171 167 167 163 149 144 138 134 115 92 79 48 26 10 3 12 8 3 4
234 243 251 255 246 248 238 233 241 232 222 232 227 165 183 198 198 180 171 190 186 178 177 174 167 159 160 159 157 154 158 159 159 137 115 83 326 356 360 3 10 6 357 352
227 233 249 251 247 245 209 207 217 227 207 173 173 142 158 188 208 175 140 195 192 185 181 174 168 159 153 152 155 163 162 155 162 150 174 285 293 321 345 355 355 351 342 336
200 223 244 245 254 258 165 136 244 236 212 134 153 159 147 207 232 135 112 204 186 174 171 170 167 158 151 149 156 166 162 159 174 190 199 222 277 315 338 344 337 340 323 322
197 211 234 246 250 250 63 102 210 230 130 120 166 177 191 232 331 30 1 210 180 169 162 166 170 168 161 160 166 173 175 187 201 201 193 189 196 290 334 339 328 315 315 327
247 237 229 243 248 232 78 144 240 24 54 103 165 202 247 309 347 94 202 193 183 173 168 170 174 174 167 170 176 180 184 192 201 189 178 172 183 277 8 327 324 315 315 313
258 296 298 290 323 41 55 33 29 21 21 346 277 273 257 247 243 232 223 211 197 189 177 181 183 177 172 178 189 190 186 187 185 178 171 169 165 174 308 280 285 290 302 316
238 286 264 260 245 267 307 337 329 332 307 305 279 263 254 251 244 225 234 220 210 202 193 190 191 185 182 189 198 198 188 185 181 182 174 173 176 174 153 263 281 310 330 335
289 269 263 257 266 270 273 305 315 314 303 295 285 266 260 250 238 237 239 230 224 216 208 199 196 195 190 190 201 200 188 182 184 197 202 197 193 186 197 213 296 302 359 355
266 268 267 279 288 278 277 285 289 278 264 262 262 268 263 250 252 244 242 234 228 219 213 204 202 199 194 192 194 195 191 190 193 201 206 207 201 191 208 203 189 164 221 128